Location: Hurecourt
(47.9030°N, 6.0653°E)
Time: 10:42:25
(UTC+00:00)

Cosmos 405 Rocket - Pass Details

Date: 14 July 2020
Orbit: 489 x 555 km, 81.3° (Epoch: 05 August)

Event Time Altitude Azimuth Distance (km) Brightness Sun altitude
Exits shadow 00:52:57 43° 156° (SSE) 733 3.1 -18.6°
Maximum altitude 00:53:58 61° 98° (E) 585 2.9 -18.6°
Drops below altitude 10° 00:57:41 10° 18° (NNE) 1,722 6.6 -18.4°
Sets 00:59:49 0° 15° (NNE) 2,603 8.0 -18.3°
